Time,TemperatureF,DewpointF,PressureIn,WindDirection,WindDirectionDegrees,WindSpeedMPH,WindSpeedGustMPH,Humidity,HourlyPrecipIn,Conditions,Clouds,dailyrainin,SolarRadiationWatts/m^2,SoftwareType,DateUTC
2013-06-10 00:02:00,75.3,73.0,30.10,SSE,161,0.0,6.0,93,0.00,,,0.00,0,weatherlink.com 1.10,2013-06-10 04:02:00,
2013-06-10 00:17:00,75.3,73.0,30.10,SSE,164,0.0,7.0,93,0.00,,,0.00,0,weatherlink.com 1.10,2013-06-10 04:17:00,
2013-06-10 00:32:00,75.3,73.0,30.10,SSE,164,0.0,3.0,93,0.00,,,0.00,0,weatherlink.com 1.10,2013-06-10 04:32:00,
2013-06-10 00:47:00,75.1,73.0,30.10,SSE,164,2.0,6.0,93,0.00,,,0.00,0,weatherlink.com 1.10,2013-06-10 04:47:00,
2013-06-10 01:02:00,74.9,73.0,30.11,SSE,164,0.0,3.0,94,0.00,,,0.00,0,weatherlink.com 1.10,2013-06-10 05:02:00,
2013-06-10 01:17:00,74.6,73.0,30.10,SSE,164,0.0,2.0,94,0.00,,,0.00,0,weatherlink.com 1.10,2013-06-10 05:17:00,
2013-06-10 01:32:00,74.4,73.0,30.10,SSE,164,0.0,3.0,94,0.00,,,0.00,0,weatherlink.com 1.10,2013-06-10 05:32:00,
2013-06-10 01:47:00,74.1,73.0,30.10,SSE,164,0.0,0.0,95,0.00,,,0.00,0,weatherlink.com 1.10,2013-06-10 05:47:00,
2013-06-10 02:02:00,73.7,72.0,30.10,SSE,164,0.0,2.0,95,0.00,,,0.00,0,weatherlink.com 1.10,2013-06-10 06:02:00,
2013-06-10 02:17:00,73.5,72.0,30.09,SSE,164,0.0,1.0,95,0.00,,,0.00,0,weatherlink.com 1.10,2013-06-10 06:17:00,
2013-06-10 02:32:00,73.2,72.0,30.09,SSE,164,0.0,0.0,96,0.00,,,0.00,0,weatherlink.com 1.10,2013-06-10 06:32:00,
2013-06-10 02:47:00,73.0,72.0,30.08,SSE,164,0.0,0.0,96,0.00,,,0.00,0,weatherlink.com 1.10,2013-06-10 06:47:00,
2013-06-10 03:02:00,72.6,71.0,30.08,SSE,164,0.0,0.0,96,0.00,,,0.00,0,weatherlink.com 1.10,2013-06-10 07:02:00,
2013-06-10 03:17:00,72.4,72.0,30.07,SSE,164,0.0,0.0,97,0.00,,,0.00,0,weatherlink.com 1.10,2013-06-10 07:17:00,
2013-06-10 03:32:00,72.6,72.0,30.07,SSE,164,0.0,3.0,97,0.00,,,0.00,0,weatherlink.com 1.10,2013-06-10 07:32:00,
2013-06-10 03:47:00,72.9,72.0,30.07,SSE,164,0.0,3.0,97,0.00,,,0.00,0,weatherlink.com 1.10,2013-06-10 07:47:00,
2013-06-10 04:02:00,73.2,73.0,30.07,SSE,164,0.0,3.0,98,0.00,,,0.00,0,weatherlink.com 1.10,2013-06-10 08:02:00,
2013-06-10 04:17:00,73.4,73.0,30.06,SSE,164,2.0,3.0,97,0.00,,,0.00,0,weatherlink.com 1.10,2013-06-10 08:17:00,
2013-06-10 04:32:00,73.5,73.0,30.07,SSE,164,0.0,5.0,97,0.00,,,0.00,0,weatherlink.com 1.10,2013-06-10 08:32:00,
2013-06-10 04:47:00,73.7,73.0,30.07,SSE,164,0.0,3.0,97,0.00,,,0.00,0,weatherlink.com 1.10,2013-06-10 08:47:00,
2013-06-10 05:02:00,73.8,73.0,30.07,SSE,164,2.0,8.0,97,0.00,,,0.00,0,weatherlink.com 1.10,2013-06-10 09:02:00,
2013-06-10 05:17:00,73.9,73.0,30.07,SSE,164,0.0,5.0,97,0.00,,,0.00,0,weatherlink.com 1.10,2013-06-10 09:17:00,
2013-06-10 05:32:00,74.0,73.0,30.07,SSE,163,1.0,5.0,97,0.00,,,0.00,0,weatherlink.com 1.10,2013-06-10 09:32:00,
2013-06-10 05:47:00,74.0,73.0,30.07,SSE,164,2.0,5.0,97,0.00,,,0.00,0,weatherlink.com 1.10,2013-06-10 09:47:00,
2013-06-10 06:02:00,73.9,73.0,30.08,SSE,164,0.0,2.0,97,0.00,,,0.00,0,weatherlink.com 1.10,2013-06-10 10:02:00,
2013-06-10 06:17:00,73.9,73.0,30.08,SSE,164,0.0,2.0,97,0.00,,,0.00,0,weatherlink.com 1.10,2013-06-10 10:17:00,
2013-06-10 06:32:00,73.7,73.0,30.09,SSE,164,0.0,0.0,97,0.00,,,0.00,5,weatherlink.com 1.10,2013-06-10 10:32:00,
2013-06-10 06:47:00,73.8,73.0,30.09,SSE,164,0.0,2.0,97,0.00,,,0.00,21,weatherlink.com 1.10,2013-06-10 10:47:00,
2013-06-10 07:02:00,73.9,73.0,30.09,SSE,164,2.0,2.0,97,0.00,,,0.00,40,weatherlink.com 1.10,2013-06-10 11:02:00,
2013-06-10 07:17:00,74.2,73.0,30.10,SSE,164,0.0,1.0,97,0.00,,,0.00,81,weatherlink.com 1.10,2013-06-10 11:17:00,
2013-06-10 07:32:00,74.8,74.0,30.10,SSE,163,0.0,2.0,97,0.00,,,0.00,91,weatherlink.com 1.10,2013-06-10 11:32:00,
2013-06-10 07:47:00,75.2,74.0,30.10,SSE,164,0.0,6.0,96,0.00,,,0.00,114,weatherlink.com 1.10,2013-06-10 11:47:00,
2013-06-10 08:03:00,75.9,74.0,30.10,SSE,165,2.0,6.0,95,0.00,,,0.00,60,weatherlink.com 1.10,2013-06-10 12:03:00,
2013-06-10 08:18:00,76.4,75.0,30.10,SSW,192,3.0,8.0,94,0.00,,,0.00,74,weatherlink.com 1.10,2013-06-10 12:18:00,
2013-06-10 08:33:00,77.4,75.0,30.10,South,186,2.0,7.0,92,0.00,,,0.00,102,weatherlink.com 1.10,2013-06-10 12:33:00,
2013-06-10 08:48:00,78.4,75.0,30.10,SSW,198,6.0,11.0,90,0.00,,,0.00,167,weatherlink.com 1.10,2013-06-10 12:48:00,
2013-06-10 09:03:00,79.6,76.0,30.11,SW,219,1.0,10.0,87,0.00,,,0.00,229,weatherlink.com 1.10,2013-06-10 13:03:00,
2013-06-10 09:18:00,79.6,75.0,30.11,South,175,3.0,11.0,85,0.00,,,0.00,267,weatherlink.com 1.10,2013-06-10 13:18:00,
2013-06-10 09:34:00,81.0,75.0,30.11,SSW,196,8.0,10.0,82,0.00,,,0.00,584,weatherlink.com 1.10,2013-06-10 13:34:00,
2013-06-10 09:48:00,82.1,75.0,30.11,SSE,161,7.0,11.0,80,0.00,,,0.00,424,weatherlink.com 1.10,2013-06-10 13:48:00,
2013-06-10 10:03:00,82.5,75.0,30.10,WSW,240,2.0,11.0,78,0.00,,,0.00,703,weatherlink.com 1.10,2013-06-10 14:03:00,
2013-06-10 10:18:00,83.6,75.0,30.10,SSW,198,6.0,11.0,75,0.00,,,0.00,629,weatherlink.com 1.10,2013-06-10 14:18:00,
2013-06-10 10:33:00,84.3,76.0,30.10,SSW,206,1.0,10.0,75,0.00,,,0.00,733,weatherlink.com 1.10,2013-06-10 14:33:00,
2013-06-10 10:48:00,85.1,77.0,30.09,SSE,151,8.0,12.0,77,0.00,,,0.00,947,weatherlink.com 1.10,2013-06-10 14:48:00,
2013-06-10 11:03:00,85.6,75.0,30.09,SE,138,7.0,12.0,71,0.00,,,0.00,816,weatherlink.com 1.10,2013-06-10 15:03:00,
2013-06-10 11:18:00,86.7,75.0,30.09,South,178,6.0,10.0,68,0.00,,,0.00,814,weatherlink.com 1.10,2013-06-10 15:18:00,
2013-06-10 11:33:00,86.6,74.0,30.09,SSE,166,6.0,12.0,67,0.00,,,0.00,995,weatherlink.com 1.10,2013-06-10 15:33:00,
2013-06-10 11:48:00,86.2,74.0,30.09,SSW,200,2.0,9.0,67,0.00,,,0.00,1072,weatherlink.com 1.10,2013-06-10 15:48:00,
2013-06-10 12:03:00,86.3,73.0,30.09,South,184,4.0,10.0,65,0.00,,,0.00,285,weatherlink.com 1.10,2013-06-10 16:03:00,
2013-06-10 12:18:00,86.3,75.0,30.08,SSW,211,2.0,7.0,68,0.00,,,0.00,213,weatherlink.com 1.10,2013-06-10 16:18:00,
2013-06-10 12:33:00,88.1,74.0,30.08,West,266,2.0,10.0,63,0.00,,,0.00,962,weatherlink.com 1.10,2013-06-10 16:33:00,
2013-06-10 12:48:00,88.8,75.0,30.07,SSE,159,2.0,11.0,63,0.00,,,0.00,1141,weatherlink.com 1.10,2013-06-10 16:48:00,
2013-06-10 13:03:00,88.8,76.0,30.07,South,190,3.0,10.0,66,0.00,,,0.00,793,weatherlink.com 1.10,2013-06-10 17:03:00,
2013-06-10 13:18:00,88.6,75.0,30.07,South,179,1.0,9.0,65,0.00,,,0.00,998,weatherlink.com 1.10,2013-06-10 17:18:00,
2013-06-10 13:33:00,89.0,74.0,30.07,SW,224,3.0,10.0,61,0.00,,,0.00,236,weatherlink.com 1.10,2013-06-10 17:33:00,
2013-06-10 13:48:00,88.3,78.0,30.07,ESE,116,3.0,11.0,72,0.00,,,0.00,1160,weatherlink.com 1.10,2013-06-10 17:48:00,
2013-06-10 14:03:00,86.9,78.0,30.06,SSE,161,5.0,11.0,75,0.00,,,0.00,348,weatherlink.com 1.10,2013-06-10 18:03:00,
2013-06-10 14:19:00,85.9,78.0,30.05,ENE,76,8.0,10.0,77,0.00,,,0.00,318,weatherlink.com 1.10,2013-06-10 18:19:00,
2013-06-10 14:34:00,86.2,78.0,30.05,SE,130,7.0,14.0,77,0.00,,,0.00,1034,weatherlink.com 1.10,2013-06-10 18:34:00,
2013-06-10 14:49:00,85.9,78.0,30.05,SSE,161,6.0,15.0,76,0.00,,,0.00,930,weatherlink.com 1.10,2013-06-10 18:49:00,
2013-06-10 15:04:00,85.6,77.0,30.04,SE,132,4.0,17.0,75,0.00,,,0.00,814,weatherlink.com 1.10,2013-06-10 19:04:00,
2013-06-10 15:19:00,85.7,77.0,30.04,SE,138,2.0,14.0,75,0.00,,,0.00,793,weatherlink.com 1.10,2013-06-10 19:19:00,
2013-06-10 15:35:00,86.1,76.0,30.04,South,176,7.0,14.0,72,0.00,,,0.00,378,weatherlink.com 1.10,2013-06-10 19:35:00,
2013-06-10 15:49:00,85.0,76.0,30.04,South,178,3.0,16.0,75,0.00,,,0.00,334,weatherlink.com 1.10,2013-06-10 19:49:00,
2013-06-10 16:04:00,85.8,77.0,30.04,SE,142,11.0,15.0,74,0.00,,,0.00,940,weatherlink.com 1.10,2013-06-10 20:04:00,
2013-06-10 16:19:00,86.8,76.0,30.03,SSE,154,4.0,13.0,71,0.00,,,0.00,301,weatherlink.com 1.10,2013-06-10 20:19:00,
2013-06-10 16:34:00,86.1,76.0,30.02,SE,144,2.0,11.0,71,0.00,,,0.00,550,weatherlink.com 1.10,2013-06-10 20:34:00,
2013-06-10 16:49:00,85.5,75.0,30.02,SSE,161,7.0,12.0,71,0.00,,,0.00,390,weatherlink.com 1.10,2013-06-10 20:49:00,
2013-06-10 17:04:00,85.2,76.0,30.02,SE,144,6.0,9.0,74,0.00,,,0.00,292,weatherlink.com 1.10,2013-06-10 21:04:00,
2013-06-10 17:19:00,84.5,75.0,30.02,SSE,151,4.0,16.0,73,0.00,,,0.00,281,weatherlink.com 1.10,2013-06-10 21:19:00,
2013-06-10 17:34:00,84.5,76.0,30.01,SSE,160,2.0,11.0,75,0.00,,,0.00,413,weatherlink.com 1.10,2013-06-10 21:34:00,
2013-06-10 17:49:00,84.8,75.0,30.01,SSE,157,5.0,19.0,72,0.00,,,0.00,330,weatherlink.com 1.10,2013-06-10 21:49:00,
2013-06-10 18:05:00,83.4,74.0,30.01,SSE,163,8.0,11.0,74,0.00,,,0.00,142,weatherlink.com 1.10,2013-06-10 22:05:00,
2013-06-10 18:19:00,82.5,74.0,30.01,SSE,160,6.0,10.0,75,0.00,,,0.00,104,weatherlink.com 1.10,2013-06-10 22:19:00,
2013-06-10 18:34:00,82.0,75.0,30.01,SE,132,8.0,12.0,78,0.00,,,0.00,91,weatherlink.com 1.10,2013-06-10 22:34:00,
2013-06-10 18:49:00,81.8,75.0,30.01,SSE,157,1.0,11.0,79,0.00,,,0.00,91,weatherlink.com 1.10,2013-06-10 22:49:00,
2013-06-10 19:04:00,81.8,75.0,30.02,SE,137,4.0,7.0,79,0.00,,,0.00,95,weatherlink.com 1.10,2013-06-10 23:04:00,
2013-06-10 19:19:00,81.8,75.0,30.02,SSE,161,5.0,8.0,80,0.00,,,0.00,93,weatherlink.com 1.10,2013-06-10 23:19:00,
2013-06-10 19:35:00,81.4,75.0,30.02,SSE,153,5.0,9.0,80,0.00,,,0.00,62,weatherlink.com 1.10,2013-06-10 23:35:00,
2013-06-10 19:49:00,81.0,75.0,30.03,South,175,9.0,12.0,81,0.00,,,0.00,32,weatherlink.com 1.10,2013-06-10 23:49:00,
2013-06-10 20:04:00,80.5,75.0,30.04,South,175,0.0,8.0,82,0.00,,,0.00,12,weatherlink.com 1.10,2013-06-11 00:04:00,
2013-06-10 20:19:00,80.3,75.0,30.04,SSW,201,0.0,6.0,84,0.00,,,0.00,7,weatherlink.com 1.10,2013-06-11 00:19:00,
2013-06-10 20:34:00,79.9,75.0,30.03,SSW,201,0.0,3.0,85,0.00,,,0.00,0,weatherlink.com 1.10,2013-06-11 00:34:00,
2013-06-10 20:49:00,79.3,75.0,30.03,SSW,200,1.0,2.0,87,0.00,,,0.00,0,weatherlink.com 1.10,2013-06-11 00:49:00,
2013-06-10 21:04:00,78.6,75.0,30.04,SSW,201,0.0,0.0,87,0.00,,,0.00,0,weatherlink.com 1.10,2013-06-11 01:04:00,
2013-06-10 21:19:00,78.0,74.0,30.04,SSW,201,1.0,4.0,86,0.00,,,0.00,0,weatherlink.com 1.10,2013-06-11 01:19:00,
2013-06-10 21:34:00,77.7,73.0,30.05,SSW,201,0.0,3.0,85,0.00,,,0.00,0,weatherlink.com 1.10,2013-06-11 01:34:00,
2013-06-10 21:49:00,77.5,73.0,30.05,SSW,200,0.0,4.0,87,0.00,,,0.00,0,weatherlink.com 1.10,2013-06-11 01:49:00,
2013-06-10 22:04:00,77.2,74.0,30.05,SSW,200,0.0,0.0,88,0.00,,,0.00,0,weatherlink.com 1.10,2013-06-11 02:04:00,
2013-06-10 22:19:00,76.8,73.0,30.06,SSW,200,1.0,2.0,89,0.00,,,0.00,0,weatherlink.com 1.10,2013-06-11 02:19:00,
2013-06-10 22:34:00,76.4,73.0,30.07,SSW,200,0.0,0.0,90,0.00,,,0.00,0,weatherlink.com 1.10,2013-06-11 02:34:00,
2013-06-10 22:49:00,76.1,73.0,30.07,SSW,200,2.0,2.0,91,0.00,,,0.00,0,weatherlink.com 1.10,2013-06-11 02:49:00,
2013-06-10 23:04:00,76.1,74.0,30.07,SSW,200,0.0,2.0,92,0.00,,,0.00,0,weatherlink.com 1.10,2013-06-11 03:04:00,
2013-06-10 23:19:00,76.2,74.0,30.07,SSW,200,0.0,4.0,91,0.00,,,0.00,0,weatherlink.com 1.10,2013-06-11 03:19:00,
2013-06-10 23:34:00,76.2,73.0,30.07,SSW,200,1.0,3.0,90,0.00,,,0.00,0,weatherlink.com 1.10,2013-06-11 03:34:00,
2013-06-10 23:49:00,76.0,73.0,30.07,SSW,200,1.0,4.0,90,0.00,,,0.00,0,weatherlink.com 1.10,2013-06-11 03:49:00,